TITAN 34D TRANSTAGE R/B

基本信息
目录编号:
14677
目录名称:
TITAN 34D TRANSTAGE R/B
国际标识:
1984-009C
轨道中心:
EARTH
物体状态:
在轨
发射日期:
1984-01-31 UTC
国别:
美国 (US)
轨道信息
数据来源: 国际轨道数据
星历时间: 2026-07-14T03:07:09+0800
半长轴: 42396.097km
偏心率: 0.1040366
轨道倾角: 6.093°
近地点辐角: 104.300°
升交点赤经: 1.200°
平近点角: 267.638°
近地点: 31607.214km
远地点: 40428.706km
周期: 1447.933分钟
每日圈数: 0.994521
详细信息
发射场:
AFETR
轨道高度:
MEO
数据来源:
AOE Integration Group
参考系:
TEME
时间系统:
UTC
历元类型:
SGP4
2D轨道图
3D轨道图
轨道高度分析图
轨道倾角分析图
轨道综合分析图
查看轨道综合分析图